Flag for India Weather past 2 weeks in Amravati, Maharashtra, India

Now
108 °F

Haze.


Feels Like: 108 °F
Forecast: 87 / 105 °F
Wind: 7 mph from Northwest

Location: Nagpur Sonegaon

Current Time: Apr 21, 2015 at 6:13:02 PM

Latest Report: Apr 21, 2015 at 5:40 PM


Visibility: 3 mi

Pressure: 29.68 "Hg

Humidity: 20%

Dew point: 59 °F

Location of AmravatiLocation

Historic Weather in Amravati — Graph

°F

Amravati temperature yesterday

Maximum temperature yesterday: 111 °F (at 3:10 PM)
Minimum temperature yesterday: 77 °F (at 6:40 AM)
Average temperature yesterday: 95 °F

Past Weeks' High & Low Weather Summary

 TemperatureHumidityPressure
High111 °F (Apr 19, 4:10 PM)94% (Apr 10, 2:40 AM)30.04 "Hg (Apr 10, 2:40 AM)
Low63 °F (Apr 13, 6:10 AM)14% (Apr 20, 5:40 PM)29.65 "Hg (Apr 6, 4:40 PM)
Average86 °F49%29.86 "Hg
* Reported Apr 6 3:40 PM — Apr 21 3:40 PM, Amravati, Weather by CustomWeather, © 2015

Note: Actual official high and low records may vary slightly from our data, if they occured in-between our weather recording intervals... More about our weather records

Advertising

Amravati weather history for previous 24 hours

 ConditionsComfort  
Time TempWeatherWind HumidityBarometerVisibility
3:40 PM
Tue, Apr 21
111 °FPassing clouds.12 mph20%29.71 "Hg4 mi
2:40 PM111 °FPassing clouds.9 mph20%29.74 "Hg4 mi
2:10 PM111 °FPassing clouds.12 mph20%29.74 "Hg4 mi
1:40 PM111 °FPassing clouds.9 mph20%29.77 "Hg4 mi
1:10 PM111 °FPassing clouds.10 mph20%29.77 "Hg4 mi
12:40 PM111 °FClear.12 mph20%29.80 "Hg4 mi
12:10 PM108 °FClear.13 mph23%29.80 "Hg4 mi
11:40 AM108 °FClear.10 mph23%29.83 "Hg4 mi
11:10 AM104 °FClear.13 mph26%29.83 "Hg4 mi
10:40 AM104 °FClear.12 mph26%29.86 "Hg4 mi
10:10 AM102 °FClear.12 mph29%29.86 "Hg4 mi
9:40 AM100 °FClear.15 mph31%29.86 "Hg4 mi
8:10 AM93 °FHaze.12 mph39%29.86 "Hg3 mi
7:40 AM91 °FHaze.9 mph41%29.86 "Hg3 mi
7:10 AM88 °FHaze.7 mph43%29.86 "Hg2 mi
6:40 AM82 °FHaze.5 mph51%29.86 "Hg2 mi
6:10 AM79 °FHaze.2 mph58%29.83 "Hg2 mi
5:40 AM82 °FHaze.No wind51%29.83 "Hg2 mi
5:10 AM81 °FHaze.2 mph54%29.80 "Hg2 mi
4:10 AM82 °FHaze.2 mph51%29.77 "Hg2 mi
3:10 AM82 °FHaze.No wind66%29.77 "Hg2 mi
2:40 AM82 °FHaze.No wind45%29.77 "Hg2 mi
2:10 AM82 °FHaze.3 mph48%29.77 "Hg2 mi
1:40 AM84 °FHaze.3 mph58%29.77 "Hg2 mi
12:40 AM86 °FHaze.No wind49%29.80 "Hg2 mi
11:10 PM
Mon, Apr 20
88 °FHaze.No wind40%29.80 "Hg2 mi
10:40 PM88 °FHaze.No wind38%29.80 "Hg2 mi
10:10 PM88 °FHaze.3 mph38%29.80 "Hg2 mi
9:40 PM90 °FHaze.2 mph36%29.80 "Hg2 mi
9:10 PM95 °FHaze.2 mph25%29.80 "Hg2 mi
7:40 PM97 °FHaze.No wind28%29.77 "Hg3 mi
6:40 PM102 °FHaze.3 mph18%29.74 "Hg3 mi
6:10 PM106 °FHaze.3 mph17%29.74 "Hg3 mi
Weather by CustomWeather, © 2015

See weather overviewHow to use our weather pages